Weather History for Indian Springs, NV

Change the Weather History Date:

Sunday, January 5, 2014

  Actual Average (KDRA) Record (KDRA)
Temperature  
Mean Temperature 39 °F -  
Max Temperature 55 °F 53 °F 70 °F (2003)
Min Temperature 23 °F 32 °F 21 °F (2009)
Degree Days  
Heating Degree Days 26    
Moisture  
Dew Point 2 °F    
Average Humidity 27    
Maximum Humidity 49    
Minimum Humidity 6    
Precipitation  
Precipitation 0.00 in - - ()
Sea Level Pressure  
Sea Level Pressure 30.30 in    
Wind  
Wind Speed 2 mph (WSW)    
Max Wind Speed 9 mph    
Max Gust Speed -    
Visibility 10 miles    
Events      
Averages and records for this station are not official NWS values.
T = Trace of Precipitation, MM = Missing Value Source: NWS Daily Summary

Daily Weather History Graph

Daily Weather History Graph

Search for Another Location

Airport:

Trip Planner

Search our weather history database for the weather conditions in past years. The results will help you decide how hot, cold, wet, or windy it might be!

Date:

Astronomy

Jan. 05, 2014 Rise Set
Actual Time 6:55 AM PST 4:41 PM PST
Civil Twilight 6:26 AM PST 5:09 PM PST
Nautical Twilight 5:54 AM PST 5:42 PM PST
Astronomical Twilight 5:23 AM PST 6:13 PM PST
Moon 9:47 AM PST (1/5) 10:04 PM PST (1/5)
Length of Visible Light 10h 43m
Length of Day
9h 46m
Waxing Crescent, 25% of the Moon is Illuminated
Jan 5
Waxing Crescent
Jan 7
First Quarter
Jan 15
Full
Jan 23
Last Quarter
Jan 30
New

Hourly Weather History & Observations

Time (PST) Temp. Windchill Dew Point Humidity Pressure Visibility Wind Dir Wind Speed Gust Speed Precip Events Conditions
12:58 AM 32.0 °F - 9.5 °F 39% 30.23 in 10.0 mi Calm Calm - N/A   Clear
1:58 AM 31.5 °F 28.1 °F 7.3 °F 36% 30.25 in 10.0 mi West 3.5 mph - N/A   Clear
2:58 AM 29.8 °F - 6.6 °F 38% 30.27 in 10.0 mi Variable 1.2 mph - N/A   Clear
3:58 AM 26.8 °F - 7.0 °F 43% 30.27 in 10.0 mi WSW 2.3 mph - N/A   Clear
4:58 AM 26.6 °F - 6.6 °F 43% 30.27 in 10.0 mi Calm Calm - N/A   Clear
5:58 AM 27.1 °F - 6.6 °F 42% 30.28 in 10.0 mi Calm Calm - N/A   Clear
6:58 AM 23.9 °F 19.5 °F 7.2 °F 49% 30.31 in 10.0 mi West 3.5 mph - N/A   Clear
7:58 AM 27.0 °F - 8.2 °F 45% 30.33 in 10.0 mi ENE 2.3 mph - N/A   Clear
8:58 AM 36.1 °F - 8.1 °F 31% 30.35 in 10.0 mi Calm Calm - N/A   Clear
9:58 AM 40.3 °F - 2.5 °F 21% 30.36 in 10.0 mi Calm Calm - N/A   Clear
10:58 AM 45.7 °F - -3.8 °F 13% 30.33 in 10.0 mi North 2.3 mph - N/A   Clear
11:58 AM 48.4 °F - -5.1 °F 11% 30.30 in 10.0 mi North 2.3 mph - N/A   Clear
12:58 PM 52.5 °F - -7.2 °F 8% 30.27 in 10.0 mi Calm Calm - N/A   Clear
1:58 PM 53.4 °F - -9.4 °F 7% 30.26 in 10.0 mi Calm Calm - N/A   Clear
2:58 PM 55.4 °F - -11.0 °F 6% 30.27 in 10.0 mi Calm Calm - N/A   Clear
3:58 PM 54.1 °F - -9.4 °F 7% 30.27 in 10.0 mi SE 5.8 mph - N/A   Clear
4:58 PM 48.9 °F - -2.9 °F 12% 30.27 in 10.0 mi SSE 9.2 mph - N/A   Clear
5:58 PM 42.4 °F - -0.2 °F 17% 30.29 in 10.0 mi SE 2.3 mph - N/A   Clear
6:58 PM 39.9 °F - 0.1 °F 19% 30.30 in 10.0 mi SW 2.3 mph - N/A   Clear
7:58 PM 36.0 °F 32.1 °F 1.0 °F 23% 30.31 in 10.0 mi WSW 4.6 mph - N/A   Clear
8:58 PM 33.8 °F - 2.8 °F 27% 30.33 in 10.0 mi Calm Calm - N/A   Clear
9:58 PM 32.2 °F - 5.5 °F 33% 30.34 in 10.0 mi NE 2.3 mph - N/A   Clear
10:58 PM 28.4 °F - 6.4 °F 39% 30.35 in 10.0 mi West 2.3 mph - N/A   Clear
11:58 PM 27.5 °F - 5.9 °F 40% 30.35 in 10.0 mi Calm Calm - N/A   Clear